Regional Weather Roundup
Issued by NWS

Home | Current Version | Previous Version | Graphics & Text | Print | Product List | Glossary On
Versions: 1 2 3 4 5 6 7 8 9 10 11 12 13 14 15 16 17 18 19 20 21 22 23 24 25 26 27 28 29 30 31 32 33 34 35 36 37 38 39 40 41 42 43 44 45 46 47 48 49 50
000
ASUS43 KMPX 200410
RWRMN
WEATHER ROUNDUP FOR MINNESOTA
NATIONAL WEATHER SERVICE TWIN CITIES/CHANHASSEN MN
1100 PM CDT SAT MAY 19 2018


NOTE: "FAIR" INDICATES FEW OR NO CLOUDS BELOW 12,000 FEET WITH NO
SIGNIFICANT WEATHER AND/OR OBSTRUCTIONS TO VISIBILITY. N/A MEANS
CURRENT SKY AND/OR WEATHER CONDITIONS ARE NOT AVAILABLE.

MNZ060>063-068>070-200500-
   Twin Cities Metro

CITY           SKY/WX    TMP DP  RH WIND       PRES   REMARKS
TWIN CITIES    CLOUDY    53  42  66 NE12G21   30.12S
ST PAUL        CLOUDY    51  40  65 NE13G20   30.14S
CRYSTAL        FAIR      51  40  65 NE7       30.13S
BLAINE         FAIR      52  43  71 NE8       30.14S
LAKEVILLE      CLOUDY    50  43  76 NE14      30.11R
EDEN PRAIRIE   CLOUDY    53  40  61 NE20G35   30.11S
SOUTH ST PAUL  CLOUDY    53  41  64 NE8       30.12S
LAKE ELMO      CLOUDY    52  41  66 NE13G20   30.14S
$$
MNZ001>005-007-008-013>017-022>024-027-028-200500-
   Northwest Minnesota

CITY           SKY/WX    TMP DP  RH WIND       PRES   REMARKS
BEMIDJI        FAIR      42  34  74 CALM      30.21S
HALLOCK        FAIR      48  39  71 CALM      30.20R
ROSEAU         FAIR      46  43  87 S3        30.20S
WARROAD        FAIR      50  37  62 SW3       30.21R
THIEF RVR FALL FAIR      48  37  65 CALM      30.22R
CROOKSTON      FAIR      52  37  58 CALM      30.22R
FOSSTON        FAIR      43  28  56 CALM      30.22S
DETROIT LAKES  FAIR      52  36  54 N3        30.21S
MOORHEAD       FAIR      48  36  61 N8        30.22R
PARK RAPIDS    FAIR      51  34  52 NE5       30.19S
MAHNOMEN       FAIR      49  35  58 N3        30.22R
$$
MNZ006-009>011-018-025>026-200500-
   North Central Minnesota

CITY           SKY/WX    TMP DP  RH WIND       PRES   REMARKS
BAUDETTE       FAIR      44  39  82 S3        30.20R
FLAG ISLAND    FAIR      54  34  47 SW7       30.18R
INTL FALLS     FAIR      38  35  89 CALM      30.20R
WASKISH        FAIR      39  37  93 CALM      30.21R
BIG FORK       FAIR      37  34  87 CALM      30.21R
LONGVILLE      FAIR      43  39  87 CALM      30.20S
GRAND RAPIDS   FAIR      42  36  79 CALM      30.22R
CRANE LAKE     FAIR      36  34  93 CALM      30.23R
ORR            FAIR      39  34  81 CALM      30.19R
COOK           FAIR      39  36  87 CALM      30.21R
WALKER         FAIR      49  36  60 NE5       30.21R
$$
MNZ012-019>021-037-200500-
   Northeast Minnesota

CITY           SKY/WX    TMP DP  RH WIND       PRES   REMARKS
DULUTH         FAIR      43  35  73 NE7       30.19R
ELY            FAIR      37  34  87 CALM      30.21R
HIBBING        FAIR      35  32  88 NW5       30.20R WCI  31
EVELETH        FAIR      37  34  87 CALM      30.21S
DULUTH HARBOR  FAIR      45  39  81 NE12      30.21R
TWO HARBORS    FAIR      41  36  81 NE5       30.21R
SILVER BAY     FAIR      41  37  87 CALM      30.21R
GRAND MARAIS     N/A     38  34  85 NW3       30.22S
G MARAIS ARPRT FAIR      37  30  75 CALM      30.21S
$$
MNZ029>031-032-039>041-046>048-054>057-064-200500-
   West Central Minnesota

CITY           SKY/WX    TMP DP  RH WIND       PRES   REMARKS
FERGUS FALLS   FAIR      54  34  47 NE5       30.16R
WHEATON        MOCLDY    57  25  28 NE7       30.19R
MORRIS         MOCLDY    54  36  50 N9        30.16R
ALEXANDRIA     FAIR      54  36  50 NE7       30.18R
ELBOW LAKE     FAIR      54  33  45 NE6       30.18R
WADENA         FAIR      48  34  57 NE6       30.19R
GLENWOOD       FAIR      52  37  58 NE9       30.17R
APPLETON       CLOUDY    55  34  44 NE8       30.14R
BENSON         MOCLDY    54  39  58 E7        30.17R
ORTONVILLE     MOCLDY    55  36  47 NE13      30.15R
MADISON        MOCLDY    55  39  54 NE8       30.14R
WILLMAR        FAIR      54  43  66 NE12G18   30.16R
$$
MNZ033>034-036-042>043-049>051-058-059-200500-
   Central Minnesota

CITY           SKY/WX    TMP DP  RH WIND       PRES   REMARKS
ST CLOUD       FAIR      50  40  68 NE6       30.16S
SAUK CENTRE    FAIR      52  38  59 NE7       30.17R
PAYNESVILLE    FAIR      52  44  74 NE8       30.16R
AITKIN         FAIR      45  36  70 E3        30.18R
PINE RIVER     FAIR      46  34  61 N3        30.22R
BRAINERD       FAIR      49  37  63 NE5       30.18R
STAPLES        FAIR      52  30  43 CALM      30.18R
LONG PRAIRIE   FAIR      46  36  66 CALM      30.18R
LITTLE FALLS   FAIR      46  39  76 CALM      30.18R
LITCHFIELD     FAIR      54  43  66 NE13G20   30.14S
BUFFALO        FAIR      51  41  68 N8G16     30.16S
MAPLE LAKE     FAIR      51  43  74 NE7       30.16S
HUTCHINSON     FAIR      52  43  70 NE18      30.14R
$$
MNZ037-044-045-052-053-200500-
   East Central Minnesota

CITY           SKY/WX    TMP DP  RH WIND       PRES   REMARKS
PRINCETON      FAIR      52  43  71 NE5       30.16S
MORA           FAIR      45  37  76 NE3       30.19R
CAMBRIDGE      FAIR      52  39  62 NE6       30.16R
RUSH CITY      FAIR      47  39  73 NE7       30.17R
MOOSE LAKE     FAIR      41  36  81 CALM      30.18R
HINCKLEY       FAIR      45  41  87 N6        30.17S
CLOQUET        FAIR      45  36  70 NE3       30.19S
MCGREGOR       FAIR      43  37  81 CALM      30.20R
$$
MNZ071>073-080-081-089-090-097-098-200500-
   Southwest Minnesota

CITY           SKY/WX    TMP DP  RH WIND       PRES   REMARKS
MONTEVIDEO     CLOUDY    54  39  58 E9        30.14R
GRANITE FALLS  PTCLDY    56  45  66 NE10      30.14R
CANBY          MOCLDY    56  41  57 E7        30.14R
MARSHALL       CLOUDY    56  44  64 E14       30.13R
REDWOOD FALLS  CLOUDY    54  43  66 E15G23    30.12R
OLIVIA         CLOUDY    54  43  66 NE14      30.12R
PIPESTONE      CLOUDY    55  46  71 E8        30.11R
WINDOM         CLOUDY    55  36  47 NE13      30.09R
WORTHINGTON    CLOUDY    54  47  77 NE16      30.10R
JACKSON        CLOUDY    54  46  76 NE16      30.10R
TRACY          CLOUDY    56  47  71 NE12G17   30.12R
SLAYTON        CLOUDY    54  46  73 NE10G20   30.12R
$$
MNZ065>067-074>077-082>085-091>093-200500-
   South Central Minnesota

CITY           SKY/WX    TMP DP  RH WIND       PRES   REMARKS
MANKATO        CLOUDY    54  45  71 NE16      30.10R
NEW ULM        CLOUDY    54  43  66 NE9       30.11R
ST JAMES       CLOUDY    55  45  67 N17       30.09S
FAIRMONT       CLOUDY    54  46  74 NE18      30.08R
GLENCOE        CLOUDY    54  44  69 NE7       30.12R
FARIBAULT      CLOUDY    52  43  71 CALM      30.11R
OWATONNA       MOCLDY    52  43  71 N16G24    30.10R
WASECA         CLOUDY    52  43  71 NE20G25   30.10R
ALBERT LEA     CLOUDY    54  43  66 NE18G25   30.06S
$$
MNZ078>079-086>088-094>096-200500-
   Southeast Minnesota

CITY           SKY/WX    TMP DP  RH WIND       PRES   REMARKS
ROCHESTER      CLOUDY    50  42  74 NE18      30.09R
RED WING       CLOUDY    52  37  58 NE8       30.10S
STANTON        CLOUDY    52  42  68 NE15G23   30.09S
DODGE CENTER   CLOUDY    52  41  66 NE16      30.09R
WINONA         CLOUDY    54  43  66 NE7       30.07R
AUSTIN         CLOUDY    54  45  71 NE14G21   30.06R
PRESTON        CLOUDY    52  43  72 N14       30.07R
$$
ABBREVIATIONS USED IN REMARKS
   TC - TEMPERATURES IN CELSIUS
  WCI - WIND CHILL INDEX
   HX - HEAT INDEX
  VSB - VISIBILITY
$$




USA.gov is the U.S. government's official web portal to all federal, state and local government web resources and services.